Location: Dortmund
(51.5019°N, 7.6520°E)
Time: 00:04:42
(UTC+02:00)

ISS - Pass Details

Date: 23 March 2019
Orbit: 408 x 410 km, 51.6° (Epoch: 23 April)

Event Time Altitude Azimuth Distance (km) Brightness Sun altitude
Rises 20:16:35 0° 225° (SW) 2,328 0.4 -14.4°
Reaches altitude 10° 20:18:47 10° 215° (SW) 1,470 -0.8 -14.7°
Maximum altitude 20:21:45 32° 151° (SSE) 731 -3.0 -15.2°
Enters shadow 20:21:58 31° 142° (SE) 737 -3.0 -15.2°
